Lexington Weather

Lexington, Massachusetts, USA

48°F
12/8/2022 3:06pm 
  • Lexington Conditions: Clear
  • Temperature: 48.4°F / 9.1°CColder 1.2°F than last hour.
  • Dew Point: 35.6°FIncreased 0.2°Fsince last hour.
  • Relative Humidity: 61%Increased 3.0% since last hour.
  • Wind: Wind from W W 1 mph, 10-min avg: 1 mph, gust: 8 mph
  • Barometer: 30.09 inRising 0.03  inHg/hr Rising Slowly
  • Visibility: 10 miles
  • Rain Today: 0.00 in
  •   

Warning: Undefined variable $rc in /homepages/6/d276339138/htdocs/weather/20190804/ssi/nwsProduct.php on line 323

Warning: Undefined variable $rc in /homepages/6/d276339138/htdocs/weather/20190804/ssi/nwsProduct.php on line 325

Warning: Undefined variable $rc in /homepages/6/d276339138/htdocs/weather/20190804/ssi/nwsProduct.php on line 323

Warning: Undefined variable $rc in /homepages/6/d276339138/htdocs/weather/20190804/ssi/nwsProduct.php on line 325

Warning: Undefined variable $rc in /homepages/6/d276339138/htdocs/weather/20190804/ssi/nwsProduct.php on line 323

Warning: Undefined variable $rc in /homepages/6/d276339138/htdocs/weather/20190804/ssi/nwsProduct.php on line 325

Warning: Undefined variable $rc in /homepages/6/d276339138/htdocs/weather/20190804/ssi/nwsProduct.php on line 323

Warning: Undefined variable $rc in /homepages/6/d276339138/htdocs/weather/20190804/ssi/nwsProduct.php on line 325

Warning: Undefined variable $rc in /homepages/6/d276339138/htdocs/weather/20190804/ssi/nwsProduct.php on line 323

Warning: Undefined variable $rc in /homepages/6/d276339138/htdocs/weather/20190804/ssi/nwsProduct.php on line 325

Warning: Undefined variable $rc in /homepages/6/d276339138/htdocs/weather/20190804/ssi/nwsProduct.php on line 323

Warning: Undefined variable $rc in /homepages/6/d276339138/htdocs/weather/20190804/ssi/nwsProduct.php on line 325

Warning: Undefined variable $rc in /homepages/6/d276339138/htdocs/weather/20190804/ssi/nwsProduct.php on line 323

Warning: Undefined variable $rc in /homepages/6/d276339138/htdocs/weather/20190804/ssi/nwsProduct.php on line 325

Regional Weather Roundup
for Boston, MA

        
000
ASUS41 KBOX 022310
RWRBOX

REGIONAL WEATHER ROUNDUP
NATIONAL WEATHER SERVICE BOSTON/NORTON MA
600 PM EST FRI DEC 02 2022

NOTE:  "FAIR" INDICATES FEW OR NO CLOUDS BELOW 12,000 FEET WITH NO 
SIGNIFICANT WEATHER AND/OR OBSTRUCTIONS TO VISIBILITY.

MAZALL-030000-
EASTERN MASSACHUSETTS
  
CITY           SKY/WX    TMP DP  RH WIND       PRES   REMARKS
BOSTON         CLOUDY    42  28  57 S13       30.48F                  
BEVERLY        PTCLDY    41  25  53 S7        30.47S                  
LAWRENCE       PTCLDY    41  25  53 VRB3      30.49R                  
BEDFORD        CLOUDY    41  26  55 S7        30.46S                  
NORWOOD        PTCLDY    42  27  55 S7        30.48S                  
MARSHFIELD       N/A     39  30  70 S5        30.49S                  
PLYMOUTH       CLOUDY    39  30  70 S3        30.49S                  
TAUNTON          N/A    N/A N/A N/A MISG      30.50R                  
NEW BEDFORD    PTCLDY    39  32  76 CALM      30.50R                  
$$

MAZALL-030000-
CAPE COD AND THE ISLANDS
  
CITY           SKY/WX    TMP DP  RH WIND       PRES   REMARKS
FALMOUTH       CLEAR     39  30  70 S9        30.50S                  
HYANNIS        CLOUDY    41  33  73 SW6       30.50S                  
CHATHAM        MOCLDY    43  34  70 SW5       30.52S                  
PROVINCETOWN   PTCLDY    43  34  70 SW14      30.51S                  
NANTUCKET      PTCLDY    47  36  65 SW13      30.53R                  
MARTHAS VNYRD  MOCLDY    42  33  70 SW3       30.51S                  
$$
 
MAZALL-030000-
CENTRAL AND WESTERN MASSACHUSETTS
  
CITY           SKY/WX    TMP DP  RH WIND       PRES   REMARKS
WORCESTER      MOCLDY    38  22  52 S8        30.43R                  
FITCHBURG      MOCLDY    40  20  44 CALM      30.46R                  
ORANGE         CLOUDY    36  23  59 S3        30.45R                  
SPRINGFIELD    MOCLDY    39  24  55 S10       30.43S                  
WESTFIELD      PTCLDY    39  25  57 S7        30.44S                  
NORTH ADAMS    MOCLDY    36  25  64 CALM      30.39S                  
PITTSFIELD     CLOUDY    37  20  50 CALM      30.37S                  
$$
 
RIZALL-030000-
RHODE ISLAND
  
CITY           SKY/WX    TMP DP  RH WIND       PRES   REMARKS
PROVIDENCE     MOCLDY    39  29  67 S5        30.50S                  
NEWPORT        CLOUDY    41  33  73 CALM      30.49S                  
BLOCK ISLAND   CLOUDY    45  36  70 SW10      30.50S                  
SMITHFIELD     CLOUDY    38  26  62 VRB3      30.48R                  
WESTERLY       CLOUDY    42  33  70 CALM      30.49S                  
$$
 
CTZALL-030000-
CONNECTICUT
  
CITY           SKY/WX    TMP DP  RH WIND       PRES   REMARKS
BRADLEY INTL   MOCLDY    40  27  59 S9        30.46S                  
HARTFORD       PTCLDY    40  28  62 S3        30.48R                  
BRIDGEPORT     CLEAR     41  30  65 SW10      30.48S                  
DANBURY        PTCLDY    35  25  66 CALM      30.47R                  
GROTON         CLOUDY    46  35  65 SW10      30.49R                  
NEW HAVEN      PTCLDY    44  33  65 S7        30.48R                  
CHESTER        CLOUDY    39  30  70 VRB3      30.47S                  
MERIDEN        CLOUDY    40  28  62 CALM      30.47S                  
WILLIMANTIC    CLOUDY    39  27  62 S3        30.48R                  
OXFORD         PTCLDY    36  29  75 CALM      30.46R                  
$$

MEZ002-015-021-024-NHZ003-005-008-011-012-014-VTZ005-008-030000-
NORTHERN NEW ENGLAND
  
CITY           SKY/WX    TMP DP  RH WIND       PRES   REMARKS
PORTLAND ME    PTCLDY    33  24  69 CALM      30.50R                  
BANGOR ME      PTCLDY    27  16  63 SE5       30.50R WCI  22          
CONCORD NH     CLEAR     34  22  61 E10       30.45S WCI  26          
MANCHESTER NH  PTCLDY    36  23  59 SE5       30.44R                  
NASHUA NH      MOCLDY    36  26  67 CALM      30.47R                  
PORTSMOUTH NH  PTCLDY    37  26  65 SE3       30.48R                  
JAFFREY NH     PTCLDY    31  24  75 S3        30.42R                  
KEENE NH       MOCLDY    33  25  72 CALM        N/A                   
BURLINGTON VT  CLOUDY    39  24  55 S13       30.32F WCI  31          
MT. WASHINGTON MOCLDY    21   5  49 SW33        N/A  WCI   2          
$$

NYZ052-076-030000-
EASTERN NEW YORK
  
CITY           SKY/WX    TMP DP  RH WIND       PRES   REMARKS
ALBANY         MOCLDY    40  22  48 SE10      30.39S                  
NEW YORK CITY  PTCLDY    41  26  55 S8        30.48R                  
$$
 
ANZALL-030000-
MARINE OBSERVATIONS
  
STATION/POSITION TIME  TEMP    WIND        PRES    VSBY  WAVE
                       AIR SEA DIR/SP/G                  HT/PER
                 (UTC) (F)     (DEG/KT/KT) (MB)    (MI)  (FT/S)
BOSTON BUOY      2250          200/ 14/ 17 1032.6F         2/11
BUZZARDS BAY     2200   44     220/ 16/ 18 1033.3S
NANTUCKET SOUND  2250   46 49  230/ 12/ 14 1033.2R         1/ 2
MASS BAY-STELLWA 2104   43 50  170/ 10/ 14 1031.6F  1 7/8
ISLE OF SHOALS   2200   42     170/ 17/ 19 1031.3S
S OF BLOCK IS    2256      55                N/A           3/ 3
$$

......................KEY.........................
  SKY/WX - SKY CONDITION/PRESENT WEATHER
  TMP    - TEMPERATURE IN FAHRENHEIT
  DWPT   - DEWPOINT IN FAHRENHEIT
  RH     - RELATIVE HUMIDITY IN PERCENT
  WIND   - DIRECTION AND SPEED IN MPH
  PRES   - MEAN SEA LEVEL PRESSURE IN INCHES OF HG
  WCI    - WIND CHILL INDEX
  VSB    - VISIBILITY IN MILES
  HX     - HEAT INDEX
  TC     - TEMPERATURE IN CELSIUS
  VRB    - VARIABLE WIND DIRECTION
  N/A    - NOT AVAILABLE
  
      

Other recent Regional Weather Roundups

Thu Dec 8, 2:10pm

Thu Dec 8, 1:10pm

Thu Dec 8, 12:10pm

Thu Dec 8, 11:10am

Thu Dec 8, 10:10am

Thu Dec 8, 9:10am

Thu Dec 8, 8:10am

Thu Dec 8, 7:10am

Thu Dec 8, 6:10am

Thu Dec 8, 5:10am

Thu Dec 8, 4:10am

Thu Dec 8, 3:10am

Thu Dec 8, 2:10am

Thu Dec 8, 1:10am

Thu Dec 8, 12:10am

Wed Dec 7, 11:10pm

Wed Dec 7, 10:10pm

Wed Dec 7, 9:10pm

Wed Dec 7, 8:10pm

Wed Dec 7, 7:10pm

Wed Dec 7, 6:10pm

Wed Dec 7, 5:10pm

Wed Dec 7, 4:10pm

Wed Dec 7, 3:10pm

Wed Dec 7, 2:10pm

Wed Dec 7, 1:10pm

Wed Dec 7, 12:10pm

Wed Dec 7, 11:10am

Wed Dec 7, 10:10am

Wed Dec 7, 9:10am

Wed Dec 7, 8:10am

Wed Dec 7, 7:10am

Wed Dec 7, 6:10am

Wed Dec 7, 5:10am

Wed Dec 7, 4:10am

Wed Dec 7, 3:10am

Wed Dec 7, 2:10am

Wed Dec 7, 1:10am

Wed Dec 7, 12:10am

Tue Dec 6, 11:10pm

Tue Dec 6, 10:10pm

Tue Dec 6, 9:10pm

Tue Dec 6, 8:10pm

Tue Dec 6, 7:10pm

Tue Dec 6, 6:10pm

Tue Dec 6, 5:10pm

Tue Dec 6, 4:10pm

Tue Dec 6, 3:10pm

Tue Dec 6, 2:10pm

Tue Dec 6, 1:10pm

Tue Dec 6, 12:10pm

Tue Dec 6, 11:10am

Tue Dec 6, 10:10am

Tue Dec 6, 9:10am

Tue Dec 6, 8:10am

Tue Dec 6, 7:10am

Tue Dec 6, 6:10am

Tue Dec 6, 5:10am

Tue Dec 6, 4:10am

Tue Dec 6, 3:10am

Tue Dec 6, 2:10am

Tue Dec 6, 1:10am

Tue Dec 6, 12:10am

Mon Dec 5, 11:10pm

Mon Dec 5, 10:10pm

Mon Dec 5, 9:10pm

Mon Dec 5, 8:10pm

Mon Dec 5, 7:10pm

Mon Dec 5, 6:10pm

Mon Dec 5, 5:10pm

Mon Dec 5, 4:10pm

Mon Dec 5, 3:10pm

Mon Dec 5, 2:10pm

Mon Dec 5, 1:10pm

Mon Dec 5, 12:10pm

Mon Dec 5, 11:10am

Mon Dec 5, 10:10am

Mon Dec 5, 9:10am

Mon Dec 5, 8:10am

Mon Dec 5, 7:10am

Mon Dec 5, 6:10am

Mon Dec 5, 5:10am

Mon Dec 5, 4:10am

Mon Dec 5, 3:10am

Mon Dec 5, 2:10am

Mon Dec 5, 1:10am

Mon Dec 5, 12:10am

Sun Dec 4, 11:10pm

Sun Dec 4, 10:10pm

Sun Dec 4, 9:10pm

Sun Dec 4, 8:10pm

Sun Dec 4, 7:10pm

Sun Dec 4, 6:10pm

Sun Dec 4, 5:10pm

Sun Dec 4, 4:10pm

Sun Dec 4, 3:10pm

Sun Dec 4, 2:10pm

Sun Dec 4, 1:10pm

Sun Dec 4, 12:10pm

Sun Dec 4, 11:10am

Sun Dec 4, 10:10am

Sun Dec 4, 9:10am

Sun Dec 4, 8:10am

Sun Dec 4, 7:10am

Sun Dec 4, 6:10am

Sun Dec 4, 5:10am

Sun Dec 4, 4:10am

Sun Dec 4, 3:10am

Sun Dec 4, 2:10am

Sun Dec 4, 1:10am

Sun Dec 4, 12:10am

Sat Dec 3, 11:10pm

Sat Dec 3, 10:10pm

Sat Dec 3, 9:10pm

Sat Dec 3, 8:10pm

Sat Dec 3, 7:10pm

Sat Dec 3, 6:10pm

Sat Dec 3, 5:10pm

Sat Dec 3, 4:10pm

Sat Dec 3, 3:10pm

Sat Dec 3, 2:10pm

Sat Dec 3, 1:10pm

Sat Dec 3, 12:10pm

Sat Dec 3, 11:10am

Sat Dec 3, 10:10am

Sat Dec 3, 9:10am

Sat Dec 3, 8:10am

Sat Dec 3, 7:10am

Sat Dec 3, 6:10am

Sat Dec 3, 5:10am

Sat Dec 3, 4:10am

Sat Dec 3, 3:10am

Sat Dec 3, 2:10am

Sat Dec 3, 1:10am

Sat Dec 3, 12:10am

Fri Dec 2, 11:10pm

Fri Dec 2, 10:10pm

Fri Dec 2, 9:10pm

Fri Dec 2, 8:10pm

Fri Dec 2, 7:10pm

Fri Dec 2, 5:10pm

Fri Dec 2, 4:10pm

Fri Dec 2, 3:10pm

Fri Dec 2, 2:10pm

Fri Dec 2, 1:10pm

Fri Dec 2, 12:10pm

Fri Dec 2, 11:10am

Fri Dec 2, 10:10am

Fri Dec 2, 9:10am

Fri Dec 2, 8:10am

Fri Dec 2, 7:10am

Fri Dec 2, 6:10am

Fri Dec 2, 5:10am

Fri Dec 2, 4:10am

Fri Dec 2, 3:10am

Fri Dec 2, 2:10am

Fri Dec 2, 1:10am

Fri Dec 2, 12:10am

Thu Dec 1, 11:10pm

Thu Dec 1, 10:10pm

Thu Dec 1, 9:10pm

Thu Dec 1, 8:10pm

Thu Dec 1, 7:10pm

Thu Dec 1, 6:10pm

Thu Dec 1, 5:10pm

Thu Dec 1, 4:10pm

Thu Dec 1, 3:10pm

Meta data:

ID: e48e97f1-a824-477e-9604-3d189eed3eae
Link: https://api.weather.gov/products/e48e97f1-a824-477e-9604-3d189eed3eae